Weather Roundup
Issued by NWS Chicago, IL

Home | Current Version | Previous Version | Graphics & Text | Print | Product List | Glossary On
Versions: 1 2 3 4 5 6 7 8 9 10 11 12 13 14 15 16 17 18 19 20 21 22 23 24 25 26 27 28 29 30 31 32 33 34 35 36 37 38 39 40 41 42 43 44 45 46 47 48 49 50
000
NZUS59 KLOT 201709
HRRLOT

CHICAGO AREA WEATHER ROUNDUP
NATIONAL WEATHER SERVICE CHICAGO/ROMEOVILLE IL
1200 PM CDT THU JUL 20 2017

NOTE: "FAIR" INDICATES FEW OR NO CLOUDS BELOW 12,000 FEET WITH NO
SIGNIFICANT WEATHER AND/OR OBSTRUCTIONS TO VISIBILITY.

* THESE STATIONS ARE NOT UNDER NWS QUALITY CONTROL. THEY ALSO MAY NOT
  REPORT WEATHER SUCH AS PRECIPITATION OR FOG.

ILZ005-006-012>014-019>023-201800-
NORTHEAST ILLINOIS

CITY           SKY/WX    TMP DP  RH WIND       PRES   REMARKS
OHARE          PTSUNNY   83  71  67 SW15G21   29.95F HX  87
MIDWAY         PTSUNNY   84  72  67 SW15G26   29.95F HX  89
AURORA         CLOUDY    85  76  74 SW16      29.97F HX  94
LANSING*       MOSUNNY   80  71  73 SW15      29.98F HX  83
JOLIET*        MOSUNNY   84  76  77 SW5       29.97F HX  93
WAUKEGAN       CLOUDY    82  74  76 VRB6      29.95S HX  88
DUPAGE AIRPORT MOSUNNY   83  74  74 SW16G22   29.96F HX  89
WHEELING       CLOUDY    83  73  72 SW12      29.96F HX  89
MORRIS*        PTSUNNY   85  75  73 SW13      29.96S HX  93
LEWIS AIRPORT* MOSUNNY   82  72  72 SW8       29.97F HX  86
NORTHERLY ISL    N/A     81  68  64 SW7         N/A  HX  84
$$

WIZ051-052-058>065-066-070>072-201800-
SOUTHEAST WISCONSIN

CITY           SKY/WX    TMP DP  RH WIND       PRES   REMARKS
MILWAUKEE      MOSUNNY   84  71  65 NW12      29.97S HX  89
KENOSHA*       MOSUNNY   83  72  69 W13G21    29.97S HX  88
RACINE*        SUNNY     82  71  69 W9G16     29.98S HX  86
WAUKESHA       PTSUNNY   79  70  73 W10G17    29.99S HX  81
WEST BEND      MOSUNNY   79  68  69 W8        29.98S HX  81
$$

INZ001>003-010>013-019-020-201800-
NORTHWEST INDIANA

CITY           SKY/WX    TMP DP  RH WIND       PRES   REMARKS
GARY*          PTSUNNY   79  70  73 S10G24    29.97F HX  81
MICHIGAN CITY* NOT AVBL
RENSSELAER*    NOT AVBL
VALPARAISO     CLOUDY    80  72  76 SW14G22   29.99F HX  84
$$

LMZ740>746-201800-
SOUTHERN LAKE MICHIGAN

STATION/POSITION TIME  SKY/WX   TEMP WIND        PRES    VSBY
                                AIR  DIR/SP/G
                 (UTC)          (F)  (DEG/KT/KT) (MB)    (MI)
HARRISON CRIB    1640            79  220/  8/ 12   N/A
BURNHAM HARBOR   1700            81                N/A
CALUMET HARBOR   1642            78  200/ 10/ 17 1014.0F
BURNS HARBOR     1640            77  190/ 19/ 23 1014.9F
MICHIGAN CITY    1640            76  190/ 16/ 19   N/A
$$

ABBREVIATIONS USED IN REMARKS
   TC - TEMPERATURE IN CELSIUS
  WCI - WIND CHILL INDEX
   HX - HEAT INDEX
  VSB - VISIBILITY
$$




USA.gov is the U.S. government's official web portal to all federal, state and local government web resources and services.